Location: Proctor
(47.8934°N, 114.3048°W)
Time: 12:05:38
(UTC+00:00)

AO-91 - Pass Details

Date: 02 July 2022
Orbit: 450 x 797 km, 97.7° (Epoch: 12 August)

Event Time Altitude Azimuth Distance (km) Brightness Sun altitude
Rises 07:39:23 0° 357° (N) 2,535 ? -19.1°
Reaches altitude 10° 07:42:06 10° 334° (NNW) 1,618 ? -19.1°
Maximum altitude 07:44:09 15° 297° (WNW) 1,308 ? -19.1°
Enters shadow 07:46:03 11° 262° (W) 1,554 ? -19.1°
